Weather in Polozaozerye

Russia / Tyumen Oblast     55°53′16″N   68°17′28″E
temp.,
°C
wind,
m/s
gust,
m/s
humid.,
%
clouds,
%
prec.,
mm/h
press.,
hPa
HPBL,
m
14 june, mon
mon1423:00+17wnw22655 0.0 102315
02:00+15nnw226658 0.0 102311
05:00+15wnw22675 0.0 102412
08:00+22wsw235449 0.0 1024290
11:00+26wsw344022 0.0 10231717
14:00+27w45345 0.0 10222388
17:00+27w45375 0.0 10212354
20:00+22sw33555 0.0 102124
15 june, tue
tue1523:00+19sw34515 0.0 102044
02:00+17sw45565 0.0 102054
05:00+17sw4658100 0.0 101994
08:00+21sw4954100 0.0 1019291
11:00+26wsw5843100 0.0 1018819
14:00+29wsw683399 0.0 10162290
17:00+28wsw5841100 0.0 10152259
20:00+23sw41060100 0.0 1014198
16 june, wed
wed1623:00+20w3666100 0.0 101490
02:00+18w3576100 0.1 101472
05:00+16w368417 0.1 1014119
08:00+23w57666 0.0 1014436
11:00+27wnw57485 0.0 10131107
14:00+29wsw694237 0.0 10122671
17:00+26w595380 0.1 1011679
20:00+21wnw498556 1.3 1011299
17 june, thu
thu1723:00+18wnw48915 1.3 1011124
02:00+17nne22874 0.0 101011
05:00+18ssw33875 0.0 101066
08:00+23sw466711 0.1 1009443
11:00+27sw455130 0.1 10071397
14:00+29wsw46408 0.0 10052260
17:00+29w46400 0.0 10031767
20:00+17nnw3787100 2.3 1003154
18 june, fri
fri1823:00+16sse4586100 2.4 100169
02:00+15s389378 0.1 999162
05:00+15nw51097100 0.6 1000394
08:00+9nnw81493100 0.0 1004586
11:00+9nnw81281100 0.0 1006887
14:00+10nnw91163100 0.0 10081222
17:00+9nnw81267100 0.1 10091138
20:00+9n7176450 0.0 10111310